Theta_e
302 303 305 307 309 309 307 305 305 306 305 303 302 302 302 302 303 305 307 309 313 315 316 314 312 312 313 312 315 318 314 316 318 320 321 323 322 323 323 323 328 329 327 329 329
308 307 304 305 308 310 308 306 305 306 306 305 303 302 302 303 304 308 309 313 317 317 316 312 310 312 313 315 315 314 313 316 317 319 319 321 321 322 321 322 324 325 327 328 328
309 309 309 307 308 310 309 306 305 306 307 307 303 302 302 303 312 321 319 315 312 311 310 308 308 309 311 315 315 314 315 315 317 319 319 319 320 321 321 320 323 325 325 327 327
308 310 310 309 309 311 308 306 306 306 306 306 303 302 302 303 320 317 316 311 310 309 307 315 316 316 311 310 312 313 315 315 316 317 318 319 320 320 320 321 322 324 324 326 327
309 310 310 310 311 310 306 305 304 303 303 303 302 302 302 306 308 317 317 313 311 312 312 315 316 313 310 310 312 310 311 315 316 317 317 318 318 319 319 320 321 322 322 325 326
310 310 311 312 311 306 306 308 308 305 302 302 302 301 302 307 317 318 317 315 312 315 316 316 317 315 313 311 311 313 312 313 314 315 316 316 317 318 319 320 320 321 321 322 327
308 311 311 311 307 308 309 309 310 309 308 302 302 301 302 306 317 317 316 315 316 316 316 315 315 315 314 312 314 314 312 311 313 314 313 315 314 315 317 318 318 318 319 320 326
307 310 312 307 308 309 309 309 310 310 307 302 301 303 305 313 312 315 316 316 316 316 315 315 315 315 314 313 312 312 310 310 311 314 314 314 314 314 317 317 318 317 318 319 320
309 308 311 307 309 311 311 310 314 313 308 304 304 315 315 315 315 314 313 315 317 317 316 314 314 314 313 310 307 309 310 311 312 312 312 314 314 314 317 317 317 318 318 318 320
304 309 308 308 309 312 314 316 316 318 314 311 309 314 316 318 316 315 313 312 314 314 315 315 313 310 307 307 309 310 311 311 311 312 313 311 312 314 315 315 316 317 317 318 319
307 305 308 308 309 314 316 316 316 317 315 316 316 317 319 319 315 313 312 313 314 314 312 313 310 310 310 310 312 312 312 312 313 313 314 313 313 313 314 315 314 315 316 317 318
311 308 308 308 311 313 315 316 316 317 314 315 315 316 316 317 320 316 315 314 313 312 312 311 310 312 312 312 313 313 313 313 312 313 314 312 312 313 313 313 316 315 317 318 318
308 312 309 310 313 317 316 317 316 315 314 315 316 316 317 317 319 318 316 315 313 312 311 311 312 314 314 313 314 313 313 312 313 313 313 312 312 312 313 314 316 317 318 318 318
308 311 311 308 310 314 316 317 316 315 315 319 319 319 318 317 315 316 315 315 313 312 312 311 313 314 313 313 314 313 317 317 315 313 313 313 313 312 312 313 314 315 315 316 316
311 309 312 309 307 315 317 317 316 316 319 323 318 317 317 315 315 316 315 315 314 313 312 313 313 312 313 314 317 317 318 317 316 313 311 312 310 313 313 313 313 312 315 317 317
312 308 312 311 308 316 316 315 317 318 324 322 316 315 313 314 315 315 315 315 315 313 312 313 314 313 314 317 317 317 317 315 315 309 312 312 311 313 312 313 313 315 317 317 318
312 309 312 316 309 316 316 317 315 320 321 320 317 316 315 314 314 314 314 314 313 312 312 313 313 313 317 318 316 315 315 317 316 317 317 314 312 312 312 313 314 314 317 317 318
315 310 314 308 307 316 315 316 319 318 319 318 316 316 317 315 314 314 314 313 312 312 313 314 316 316 318 317 317 317 314 313 318 317 316 316 318 314 314 315 315 317 318 317 317
316 310 316 315 312 314 315 316 319 319 319 315 315 315 314 314 313 312 312 314 315 314 314 314 316 315 317 316 315 318 318 317 318 317 319 317 316 315 315 314 317 317 317 316 314
314 310 319 319 315 316 313 315 316 317 315 315 314 314 312 311 311 311 312 315 316 315 313 315 314 315 316 316 315 316 315 316 315 313 319 318 318 317 316 315 317 315 314 316 315
311 309 319 320 318 316 313 314 316 317 314 314 313 312 311 311 311 312 314 315 315 314 313 313 314 315 313 314 313 312 315 315 313 313 312 317 315 317 316 316 316 316 317 316 316
310 307 314 318 314 314 317 318 314 314 314 314 312 312 312 312 313 313 314 314 314 313 313 314 312 314 314 313 313 314 314 313 313 316 319 317 317 314 314 315 314 315 317 317 316
310 308 314 316 312 313 313 314 314 314 314 313 313 312 312 312 311 314 313 313 311 312 313 313 311 310 309 308 310 313 314 315 314 311 313 310 311 312 313 311 313 314 316 316 316
309 310 312 311 311 310 312 314 315 315 314 310 310 310 309 309 309 310 310 311 311 313 314 311 308 308 309 309 308 312 313 313 313 310 311 314 313 312 313 313 314 313 314 316 317
310 311 307 308 308 308 310 312 313 314 312 310 309 310 309 308 308 309 309 310 310 314 310 307 309 310 310 311 313 312 312 311 312 313 313 312 312 315 314 312 313 314 316 315 315
308 309 308 307 308 310 311 312 311 311 312 310 308 307 307 307 307 308 307 307 308 308 307 306 308 310 311 311 310 312 311 310 311 312 312 313 314 313 314 314 314 314 316 316 316
307 306 306 307 309 309 311 312 311 310 310 310 309 308 307 307 307 307 307 307 306 307 306 306 306 308 309 311 311 311 313 315 315 315 314 314 314 313 313 314 314 314 314 313 313
Wind_Speed
19 17 15 15 13 11 11 10 9 9 9 9 8 9 9 11 11 14 17 8 6 7 5 7 10 9 8 10 14 6 1 6 6 6 7 27 5 21 24 18 31 27 6 14 16
18 17 16 14 13 10 9 9 8 8 8 8 8 8 9 12 15 13 4 7 5 5 8 8 9 10 5 7 6 7 4 6 5 5 7 23 18 22 12 25 10 16 8 13 17
19 16 15 13 11 11 8 7 8 7 7 7 8 8 9 13 11 5 6 3 1 4 8 5 6 4 7 12 8 6 7 4 10 19 23 24 31 26 13 9 19 14 20 15 16
21 17 14 13 11 10 10 7 6 6 7 6 5 6 8 9 1 3 3 5 4 2 5 6 3 3 3 5 11 6 14 19 22 29 26 19 33 27 18 21 18 19 20 14 18
24 18 14 11 9 9 8 8 6 5 5 6 5 5 5 5 7 2 1 3 4 5 10 6 4 4 3 5 11 5 7 22 30 32 31 34 28 28 34 22 19 22 25 25 17
26 20 16 12 10 9 7 7 6 5 5 5 4 5 5 3 3 5 2 4 6 4 1 6 7 12 9 4 2 7 10 16 16 21 23 17 23 27 42 14 10 12 18 20 23
25 21 16 12 10 8 7 7 7 6 6 5 4 6 9 14 3 6 2 4 4 3 8 7 10 9 9 7 10 12 7 8 5 6 5 11 8 14 25 24 13 16 19 21 24
26 22 16 13 9 9 7 7 8 6 5 4 4 6 8 3 12 11 9 6 3 2 6 9 6 7 5 11 11 6 4 4 5 6 11 3 16 17 31 25 34 22 20 24 24
25 23 17 11 9 10 9 7 8 7 4 3 3 5 9 7 11 14 14 14 10 10 11 4 5 4 6 3 5 4 5 8 8 6 5 5 17 11 27 29 29 38 32 24 25
25 22 18 12 9 9 10 11 11 8 4 5 8 7 6 2 4 7 11 8 14 12 9 11 4 1 3 4 4 6 5 7 7 7 4 8 12 16 25 20 28 36 42 35 21
27 22 17 12 9 8 11 8 9 1 8 13 16 16 19 7 5 7 6 13 13 12 2 6 2 6 12 10 13 8 12 16 16 9 3 6 8 13 13 18 22 30 32 30 22
29 24 17 11 9 7 10 11 7 13 14 23 26 29 26 20 8 12 8 8 11 6 3 4 6 14 10 11 11 13 16 16 9 6 4 9 11 15 9 10 16 20 15 13 9
31 28 20 11 9 8 11 9 11 11 7 18 12 17 23 18 17 22 11 16 6 5 6 8 11 10 10 12 13 11 7 7 11 6 4 6 10 11 15 9 22 18 15 14 15
32 30 25 14 9 5 3 12 12 12 4 6 6 5 10 15 6 21 22 19 6 13 10 8 15 11 10 7 4 5 6 13 13 7 11 6 13 8 8 8 8 17 18 20 22
35 31 26 16 9 7 10 8 9 6 3 3 5 4 11 16 3 7 19 23 14 11 7 12 6 8 7 10 1 6 3 4 7 12 4 6 2 11 4 10 10 10 20 20 25
38 33 26 14 9 2 9 9 6 4 4 2 4 5 5 6 7 2 14 22 16 8 6 12 16 6 9 2 5 3 1 3 2 2 7 14 5 14 10 11 6 7 25 32 34
40 33 22 13 1 0 6 4 4 3 6 5 3 4 3 4 5 6 8 6 11 3 7 9 11 10 2 1 5 9 6 5 4 3 13 12 7 16 11 9 13 14 20 31 39
38 32 14 5 8 4 3 4 2 4 3 12 5 5 1 6 6 7 7 4 7 1 1 5 4 1 3 4 4 3 5 4 6 4 9 6 8 18 5 13 23 16 15 29 35
39 29 9 1 9 5 2 2 5 4 5 2 4 2 3 5 1 6 4 3 2 2 5 1 2 3 1 5 6 3 5 4 3 3 4 5 8 15 19 13 8 11 7 30 3
38 28 9 8 8 5 3 5 4 2 11 4 1 1 2 4 4 5 3 1 2 2 4 2 4 3 3 3 3 3 2 1 1 3 6 5 5 8 6 7 8 8 11 15 13
29 13 2 8 8 3 2 5 6 11 15 4 3 4 4 3 4 4 4 9 5 2 4 4 4 4 2 1 2 1 0 3 1 3 3 5 5 5 2 5 3 3 5 7 13
20 4 3 11 1 3 3 4 14 8 15 3 3 1 3 2 3 4 5 4 16 10 3 4 5 3 7 6 4 3 4 5 3 3 4 1 7 14 9 9 7 2 10 16 4
18 8 12 10 2 3 7 8 7 5 5 7 4 4 2 0 3 3 8 12 12 6 3 6 1 1 7 5 3 3 5 6 2 2 6 3 5 4 8 11 19 9 11 15 22
8 3 7 9 5 2 5 5 11 13 8 5 3 5 5 3 1 5 8 5 14 7 3 6 3 7 6 7 5 5 6 9 8 4 4 8 15 13 12 12 13 19 13 23 30
4 3 5 3 5 8 8 9 13 12 9 13 5 8 5 3 6 6 3 4 8 1 5 3 4 4 6 8 10 12 12 12 10 14 8 15 10 2 7 7 7 16 18 12 9
5 5 7 10 12 9 6 3 9 11 8 9 7 12 6 4 6 12 3 2 5 2 3 3 3 2 4 6 7 11 13 16 17 17 13 7 5 7 11 13 9 15 13 7 6
6 8 6 5 3 4 3 5 12 12 10 9 16 15 13 13 11 13 14 12 10 5 3 2 2 3 4 3 7 7 3 6 7 7 4 3 6 6 5 6 10 10 5 10 13
Wind_Direction
340 334 327 322 317 318 315 314 313 314 314 307 299 298 301 299 292 278 269 235 179 181 228 241 234 220 205 229 219 199 124 222 224 228 262 287 297 294 308 295 217 255 261 216 166
344 337 330 324 317 315 319 315 312 311 309 306 303 304 310 309 305 283 258 200 208 221 269 272 230 193 204 225 209 179 192 226 211 248 261 280 280 294 320 301 284 220 220 167 176
348 343 336 328 318 314 318 320 315 305 299 298 299 306 314 320 327 20 123 112 339 290 265 217 182 225 233 228 212 207 233 244 267 260 265 270 278 282 262 278 281 255 237 190 183
354 352 347 340 329 323 320 325 318 306 293 282 279 296 308 318 232 27 86 53 31 290 175 153 219 216 225 222 241 248 261 242 251 254 254 262 273 273 257 253 274 283 285 236 175
2 359 357 350 340 332 332 335 329 312 297 288 274 258 281 285 257 300 198 34 76 111 168 188 252 242 237 236 268 187 259 256 253 251 250 255 260 265 268 257 257 274 281 278 217
5 3 359 357 354 348 350 349 341 324 305 286 268 262 260 272 195 167 176 265 180 171 219 250 280 295 259 235 152 296 289 284 280 269 263 256 266 267 266 255 229 258 260 283 244
11 5 0 359 357 4 3 2 355 330 314 300 279 265 262 246 190 185 190 90 167 236 302 320 332 0 345 340 333 311 311 314 276 256 247 276 276 252 273 285 270 266 268 266 248
7 7 3 356 4 3 353 349 356 346 322 304 282 290 261 98 197 212 215 188 145 260 259 296 330 325 354 321 335 339 360 330 284 311 292 187 267 272 280 282 285 272 263 252 249
5 3 1 358 353 352 348 331 332 329 313 294 285 298 269 195 225 233 219 226 243 256 237 281 280 278 298 58 359 338 261 285 305 257 253 182 277 265 275 265 260 272 268 237 234
3 360 355 351 349 346 349 342 317 296 284 278 250 306 243 219 240 204 226 236 242 270 269 234 252 159 358 84 240 249 265 263 272 288 212 264 257 272 280 259 250 250 258 256 237
357 355 354 344 339 338 344 349 355 324 262 256 269 260 270 266 170 179 179 208 230 260 162 276 76 242 240 220 237 246 260 265 274 263 273 246 263 285 282 292 270 240 235 251 258
354 348 344 339 328 331 336 336 338 336 297 287 268 254 259 263 286 212 195 200 212 211 249 351 249 249 242 253 242 249 252 260 263 252 252 289 278 284 285 264 259 233 215 217 250
354 344 339 326 309 316 332 4 337 331 291 302 252 236 235 234 245 244 228 217 184 204 219 206 239 257 252 256 260 260 241 262 263 265 271 328 294 292 291 267 273 235 241 251 240
352 344 335 325 306 291 1 1 356 346 18 279 194 223 215 228 237 244 224 201 200 213 226 237 252 255 281 287 284 295 352 7 327 298 277 166 271 276 273 295 286 281 289 271 263
348 343 336 311 287 279 343 333 330 318 342 214 168 185 180 171 169 207 205 203 219 218 144 233 225 251 270 269 84 253 347 2 344 326 290 249 204 268 330 293 279 287 297 295 296
345 342 336 315 276 321 343 323 329 52 269 226 137 181 137 216 246 271 207 219 234 220 231 246 251 201 245 269 186 275 335 358 7 61 277 294 207 268 254 258 266 264 289 297 299
343 340 331 318 172 87 331 350 46 155 296 33 123 102 232 259 241 227 237 210 218 198 243 265 265 266 104 32 12 48 46 333 331 290 261 260 262 250 270 264 243 260 299 304 289
337 338 332 350 179 197 357 52 176 262 286 345 11 357 334 358 346 356 5 338 257 345 13 201 303 76 134 124 150 124 140 180 242 254 283 10 252 255 284 296 264 265 283 334 290
335 338 332 95 162 154 75 95 219 247 323 349 352 333 348 10 354 14 323 257 81 142 172 44 237 6 287 160 138 144 179 172 223 324 286 234 275 276 273 283 264 234 6 347 218
336 331 325 185 171 170 87 234 251 291 327 307 148 289 342 310 323 357 289 229 124 109 104 263 309 310 58 101 258 152 153 208 285 264 258 268 261 254 359 355 13 352 39 16 327
341 330 354 187 179 174 181 236 268 301 22 318 288 260 256 338 303 291 261 323 30 313 142 159 157 259 47 272 173 248 99 30 204 184 225 269 267 325 323 280 73 32 357 1 338
340 326 350 185 193 217 217 239 347 331 3 318 337 135 166 254 266 283 255 250 331 327 244 188 154 201 225 252 189 141 167 162 156 259 230 231 241 258 246 289 301 343 181 229 326
329 292 19 212 240 2 329 321 286 334 359 331 291 278 49 77 326 256 303 316 334 351 209 183 190 27 336 352 328 224 195 184 153 82 213 173 263 279 314 302 287 238 214 210 214
319 319 325 349 51 39 340 311 327 321 348 353 0 27 16 343 34 285 309 316 348 339 280 132 157 168 215 222 196 250 243 201 181 179 224 223 273 300 318 335 330 313 271 210 202
302 291 8 327 330 329 329 315 335 332 360 337 329 352 320 281 302 273 291 334 340 28 5 83 211 223 237 251 271 282 281 276 234 240 224 270 253 8 336 292 329 356 339 296 274
302 340 340 303 306 347 326 291 300 322 333 312 341 318 299 248 236 288 279 214 228 339 38 6 275 320 234 250 280 292 289 279 270 265 243 246 267 23 307 305 335 354 338 353 37
296 313 319 279 295 291 240 318 312 312 296 313 320 317 299 283 276 265 253 232 229 219 220 211 155 10 269 310 308 299 307 280 291 56 344 44 6 327 278 309 317 339 351 360 2